Location: Cargill Incorporated Elevator
(42.7294°N, 93.7333°W)
Time: 04:27:50
(UTC+00:00)

CZ-4 R/B - Pass Details

Date: 19 January 2026
Orbit: 676 x 743 km, 98.7° (Epoch: 14 February)

Event Time Altitude Azimuth Distance (km) Brightness Sun altitude
Rises 12:14:05 0° 5° (N) 3,113 7.1 -15.7°
Reaches altitude 10° 12:16:27 10° 358° (N) 2,200 6.2 -15.2°
Maximum altitude 12:20:53 38° 291° (WNW) 1,096 4.3 -14.4°
Drops below altitude 10° 12:25:23 10° 224° (SW) 2,223 6.1 -13.6°
Sets 12:27:47 0° 217° (SW) 3,149 7.0 -13.2°
